GLOBALSTAR M023 [P]

Last updated on Wed May 04 2016 07:38:51 GMT+0000 (Coordinated Universal Time)

1 25621U 99004A 16125.19708119 -.00000083 00000-0 11371-3 0 9997 2 25621 52.0092 114.4597 0009816 329.2532 111.6753 12.62336378795115

Satellite not in orbit

GLOBALSTAR M023 [P]